User: anonymous   Login
Location: Lewisville
(33.0462°N, 96.9942°W)
Time: 03:17:58
(UTC-05:00)
Language:

X-37B - Orbit

View from above orbital plane
View from above orbital plane
View from above satellite
View from above satellite

Ground track
Ground track

The orbit data is extracted from the following two-line orbital elements,

1 45606U 20029A   22272.16793858 0.00000000  00000-0  00000-0 0    09
2 45606  45.0255 354.1241 0009612 258.2333 101.7663 15.78188695    00
Epoch (UTC): 29 September 2022 04:01:49
Eccentricity: 0.0009612
inclination: 45.0255°
perigee height: 329 km
apogee height: 342 km
right ascension of ascending node: 354.1241°
argument of perigee: 258.2333°
revolutions per day: 15.78188695
mean anomaly at epoch: 101.7663°
orbit number at epoch: 0

The dashed part of the orbit path shows where the satellite is in the earth's shadow,  

DLR